Regional Weather Roundup
Issued by NWS

Home | Current Version | Previous Version | Graphics & Text | Print | Product List | Glossary On
Versions: 1 2 3 4 5 6 7 8 9 10 11 12 13 14 15 16 17 18 19 20 21 22 23 24 25 26 27 28 29 30 31 32 33 34 35 36 37 38 39 40 41 42 43 44 45 46 47 48 49 50
000
ASUS43 KDTX 242010
RWRMI
MICHIGAN HOURLY REGIONAL WEATHER ROUNDUP
NATIONAL WEATHER SERVICE DETROIT/PONTIAC MI
400 PM EDT SUN MAY 24 2015

NOTE: "FAIR" INDICATES FEW OR NO CLOUDS BELOW 12,000 FEET WITH NO
SIGNIFICANT WEATHER AND/OR OBSTRUCTION TO VISIBILITY.

MIZ047>049-052>055-059>063-066>070-074>076-081>083-242100-
SOUTHEAST LOWER MICHIGAN

CITY           SKY/WX    TMP DP  RH WIND       PRES   REMARKS
ADRIAN         CLOUDY    78  53  41 S8        30.17F
ALMA           CLOUDY    72  49  43 SW9       30.19R
ANN ARBOR      CLOUDY    74  55  51 S5        30.18F
BAD AXE        CLOUDY    78  43  29 SW13G21   30.16F
CARO           CLOUDY    73  42  32 S7        30.17F
DETROIT CITY   CLOUDY    76  49  38 SW7       30.19F
DETROIT        LGT RAIN  78  54  43 SE7       30.19F
FLINT          CLOUDY    77  51  40 S5        30.18F
GROSSE ILE     CLOUDY    73  48  40 SE3       30.18S
HILLSDALE      CLOUDY    76  54  45 S3        30.17F
HOWELL         CLOUDY    75  48  38 S9        30.17F

CITY           SKY/WX    TMP DP  RH WIND       PRES   REMARKS
JACKSON        CLOUDY    73  55  53 S7        30.18F
LAMBERTVILLE   CLOUDY    79  50  36 S3        30.18F
LANSING        CLOUDY    74  53  48 SE3       30.18F
LAPEER         CLOUDY    74  45  34 SW6       30.19F
MASON          CLOUDY    71  53  52 S5        30.18S
MONROE         CLOUDY    75  48  38 E7        30.17F
MT. CLEMENS    CLOUDY    75  54  47 S8        30.16F
PONTIAC        CLOUDY    76  48  37 S7        30.18F
PORT HOPE        N/A     65  54  67 CALM      30.14F
PORT HURON     PTSUNNY   73  48  40 S7        30.19F
TRI CITIES     LGT RAIN  72  53  51 SW8       30.18F
MIDLAND        FAIR      73  45  35 W9        30.17S
TROY           CLOUDY    79  46  32 SW6       30.20S
SAGINAW HB     LGT RAIN  73  50  43 W3        30.17F
$$
MIZ043>046-050>051-056>058-064>065-071>073-077>080-242100-
SOUTHWEST LOWER MICHIGAN

CITY           SKY/WX    TMP DP  RH WIND       PRES   REMARKS
BATTLE CREEK   CLOUDY    74  55  51 SE7       30.16F
BENTON HARBOR  CLOUDY    74  57  55 SE13      30.09F
BIG RAPIDS     LGT RAIN  65  49  55 CALM      30.18F
COLDWATER      CLOUDY    74  55  51 SE7       30.15F
FREMONT        DRIZZLE   63  56  77 CALM      30.16F
HOLLAND        CLOUDY    72  53  51 E10       30.14F
GRAND RAPIDS   CLOUDY    72  51  47 NE6       30.16F
IONIA          LGT RAIN  74  46  36 CALM      30.16F
KALAMAZOO      CLOUDY    75  56  51 SE5       30.15F
LUDINGTON      DRIZZLE   63  57  81 SE3       30.15F
MARSHALL       CLOUDY    74  56  53 SE5       30.16F
MOUNT PLEASANT LGT RAIN  68  56  65 CALM      30.19S
MUSKEGON       LGT RAIN  65  55  70 E8        30.14F
SOUTH HAVEN    CLOUDY    74  55  51 E8        30.11F
$$
MIZ016>042-242100-
NORTHERN LOWER MICHIGAN

CITY           SKY/WX    TMP DP  RH WIND       PRES   REMARKS
ALPENA         CLOUDY    73  47  39 E5        30.10F
BEAVER ISLAND  CLOUDY    64  44  47 S10       30.12F
BELLAIRE       CLOUDY    73  45  36 W6        30.12S
CADILLAC       CLOUDY    71  46  40 S10       30.16F
CHARLEVOIX     CLOUDY    64  48  54 SW9       30.15F
FRANKFORT      CLOUDY    62  46  55 SW7       30.15F
GAYLORD        CLOUDY    76  45  33 SW10      30.12F
GRAYLING       CLOUDY    75  45  33 SW8       30.14F
HARBOR SPRINGS CLOUDY    62  44  51 SW8G16    30.13R
HOUGHTON LAKE  CLOUDY    71  49  45 SW8       30.16F
MANISTEE       CLOUDY    64  50  59 S7G17     30.16F
OSCODA         CLOUDY    77  49  37 SW7       30.13F
PELLSTON       CLOUDY    79  44  28 SW7       30.10F
ROGERS CITY    CLOUDY    67  47  49 E3        30.12F
TRAVERSE CITY  CLOUDY    73  49  42 W10       30.11F
$$
MIZ007>008-015-242100-
EASTERN UPPER MICHIGAN

CITY           SKY/WX    TMP DP  RH WIND       PRES   REMARKS
KINROSS        PTSUNNY   75  43  31 SW6       30.09F
MACKINAC ISLAN CLOUDY    70  41  35 W6        30.10F
NEWBERRY       CLOUDY    74  46  35 S13G18    30.08F
S. S. MARIE    PTSUNNY   75  45  34 SW8       30.07F
MUNISING         N/A     63  41  44 NW8       30.03F
$$
MIZ004>006-011>014-085-242100-
CENTRAL UPPER MICHIGAN

CITY           SKY/WX    TMP DP  RH WIND       PRES   REMARKS
MANISTIQUE     CLOUDY    56  40  55 S12       30.10F
ESCANABA       CLOUDY    63  45  51 SE6       30.07F
MENOMINEE      CLOUDY    68  52  56 SW14      30.08F
SAWYER-GWINN   PTSUNNY   77  43  29 S9        30.05F
$$
MIZ001>003-009>011-084-242100-
WESTERN UPPER MICHIGAN

CITY           SKY/WX    TMP DP  RH WIND       PRES   REMARKS
IRON MOUNTAIN  CLOUDY    78  45  30 S13       30.03F
HOUGHTON       CLOUDY    76  44  32 VRB5      30.02F
COPPER HARBOR    N/A     55  41  59 N5        30.02F
IRONWOOD       CLOUDY    73  48  40 SW5       29.98F
$$

ABBREVIATIONS USED IN REMARKS
   TC - TEMPERATURE IN CELSIUS
  WCI - WIND CHILL INDEX
   HX - HEAT INDEX
  VSB - VISIBILITY




USA.gov is the U.S. government's official web portal to all federal, state and local government web resources and services.